Tracking 32579 objects as of 15-Dec-2025
HD Live streaming from Space Station
objects crossing your sky now

LES 6

Track LES 6 now!
LES 6 is classified as:


NORAD ID: 3431
Int'l Code: 1968-081D
Perigee: 35,761.4 km
Apogee: 35,841.4 km
Inclination: 1.2 °
Period: 1,436.5 minutes
Semi major axis: 42172 km
RCS: 3.1622 m2 (large)
Launch date: September 26, 1968
Source: United States (US)
Launch site: AIR FORCE EASTERN TEST RANGE (AFETR)
Your satellite tracking list
Your tracking list is empty




NASA's NSSDC Master Catalog

Two Line Element Set (TLE):
1 03431U 68081D   25348.74416296  .00000143  00000-0  00000-0 0  9993
2 03431   1.2453  28.2449 0009492 294.9926 242.0584  1.00244459118938
Source of the keplerian elements: AFSPC